CZ-2C R/B (31114 NORAD) Tracking and Keplerian Element Data

This shows tracking and keplerian element data for the satellite.

Feedback or suggestion? Click here.




ElementValue
Catalog31114
NameCZ-2C R/B
Epoch Orbit86806
Epoch Day12.94138882
Epoch Year2024
RAAN158.369
Inclination98.3057
Eccentricity0.0060471
Argument of Perigee63.9387
Mean Anonmoly296.7999
Mean Motion14.19690112
Decay Rate2.47E-06
L11 31114U 07010B 24012.94138882 .00000247 00000+0 13299-3 0 9999
L22 31114 98.3057 158.3690 0060471 63.9387 296.7999 14.19690112868063



Live tracking and technical data element details for CZ-2C R/B (NORAD 31114). CZ-2C R/B can be tracked NOW for your location showing map with azimuth and elevation plus other details from your city location.







IsCatalogInMostPopularTable: catalog: 31114, numindb: 379
Update: records affected: 1



GetName: 31114 CZ-2C R/B

Hit Count: updated at: Fri, 19 Apr 2024 12:27:27 GMT